Torna al catalogo

SL-12 R/B(2)

AttivoGEO
NORAD 22839·ROCKET BODY·🇷🇺 Russia

Lanciato Sep 30, 1993 da Baikonur Cosmodrome

Loading…

TLE

AggiornatoSource: Space-Track

Epoca: Sep 13, 2026, 22:27 UTC

1 22839U 93062D   26256.93566947  .00000043  00000-0  00000-0 0  9991
2 22839  13.9125 346.2013 0008323  96.9039 257.0873  1.00316327119745

Traccia SL-12 R/B(2) in tempo reale con AllMySat

Download on the App Store